Wind_Speed
17 16 15 14 13 12 11 10 10 8 8 7 6 5 5 4 3 3 3 2 2 3 3 3 4 4 5 6 7 8 8 9 10 11 12 13 13 14 15 16 17 18 18
19 17 16 15 14 13 12 11 10 9 8 7 7 6 5 5 4 3 3 2 2 2 2 3 3 4 4 5 6 7 8 9 10 11 12 13 14 14 15 16 17 18 18
20 18 17 16 15 14 13 12 11 10 9 8 7 7 6 5 4 4 3 3 2 2 2 2 3 3 4 5 6 7 8 9 10 11 12 13 14 15 16 17 17 18 18
21 19 18 17 15 14 14 13 12 10 9 9 8 7 7 6 5 4 4 3 3 2 2 2 2 3 4 5 6 7 8 9 10 11 12 13 14 15 16 17 18 19 19
23 21 19 17 16 15 14 13 12 11 10 9 9 8 7 7 6 5 4 4 3 3 2 2 2 3 3 4 5 7 8 9 10 11 12 13 15 16 17 18 19 19 20
24 22 20 19 17 16 15 14 13 12 11 10 10 9 8 7 6 6 5 4 4 3 3 3 2 3 3 4 5 7 8 9 10 12 13 14 15 17 18 19 20 20 21
26 24 22 20 18 17 15 15 14 13 12 11 10 10 9 8 7 6 5 5 4 4 4 3 3 3 4 4 6 7 8 10 11 12 13 15 16 17 19 20 21 21 22
27 25 24 22 20 18 17 16 15 14 13 12 12 11 10 9 8 7 6 5 5 4 4 4 4 4 4 5 6 7 9 10 12 13 15 16 17 19 20 21 22 22 22
29 27 25 23 22 20 18 17 16 15 15 14 13 12 11 10 9 8 7 6 6 5 5 5 5 5 5 6 7 8 10 11 13 14 16 17 18 20 21 22 23 23 23
30 28 26 24 22 21 20 19 18 17 16 15 14 13 12 11 10 10 9 8 7 6 6 6 6 6 7 7 8 10 11 13 14 16 17 18 20 21 22 23 24 24 25
32 30 28 25 24 23 21 21 20 18 17 17 15 14 14 13 12 11 10 9 8 8 8 8 8 8 9 9 10 11 13 14 15 17 18 20 21 22 23 24 25 25 26
34 32 30 27 26 24 23 22 21 20 19 18 17 16 15 14 13 12 11 11 10 10 9 9 10 10 11 11 12 13 14 16 17 19 20 22 23 24 25 26 26 27 27
36 34 32 30 28 26 25 24 23 22 21 20 19 17 17 15 15 14 13 12 12 12 11 11 12 12 13 13 14 16 17 18 19 20 22 23 25 25 26 27 28 29 29
38 36 34 32 30 28 26 25 25 24 23 22 21 20 19 17 17 16 15 15 14 14 14 14 14 14 15 16 17 18 19 20 21 22 23 25 26 27 28 29 29 30 30
40 39 36 34 32 30 29 27 27 26 25 24 23 22 21 20 19 18 18 17 17 16 16 16 16 17 17 18 19 20 21 22 23 24 25 27 28 29 29 30 31 31 31
43 41 38 36 34 32 31 29 29 28 27 26 25 24 23 22 21 21 20 20 19 19 19 19 19 19 20 21 21 22 23 24 25 26 27 29 30 31 31 31 32 32 32
45 43 41 39 37 35 33 32 30 29 29 28 28 27 26 25 24 23 23 22 22 21 21 21 22 22 23 23 24 25 25 26 27 28 30 31 32 32 33 33 33 33 33
46 45 43 42 39 37 36 34 33 31 31 31 30 30 29 28 27 27 26 25 24 24 24 24 24 25 25 26 26 27 28 29 30 31 32 33 33 33 34 34 34 35 35
48 47 45 43 41 40 38 37 36 34 34 33 33 32 32 31 31 30 29 28 28 27 27 27 27 28 28 28 29 29 30 31 32 33 33 34 35 35 35 36 36 36 36
50 49 47 45 43 42 41 40 39 38 36 36 35 35 35 35 34 33 32 32 31 31 31 30 30 31 31 31 31 32 32 33 34 34 35 36 37 37 37 38 37 37 37
52 50 49 47 46 44 43 41 40 39 39 38 38 38 38 37 37 37 36 36 35 34 34 34 34 33 33 34 34 34 35 35 36 36 37 38 38 39 40 40 39 39 38
53 52 51 50 48 47 45 44 43 42 42 41 41 40 40 39 39 39 39 38 38 38 38 38 37 37 37 37 38 38 37 37 37 37 38 39 40 41 41 41 41 41 40
54 53 52 51 50 49 48 47 46 45 44 43 42 42 42 42 42 41 41 41 41 41 41 41 41 40 40 40 40 41 41 40 39 38 39 40 41 41 42 42 42 41 41
53 53 53 52 52 51 49 48 47 46 45 44 44 44 43 43 44 43 43 43 44 44 43 44 44 44 43 43 43 43 43 43 43 42 41 41 41 41 42 42 42 41 40
53 53 53 52 52 51 51 49 49 49 48 47 46 46 45 45 45 45 45 45 45 45 45 45 46 46 46 45 45 44 44 44 45 45 44 43 43 42 42 42 41 40 40
53 53 53 53 53 52 52 52 51 51 50 50 49 49 48 47 47 48 48 47 47 47 47 48 48 48 47 47 47 47 46 46 46 46 46 45 44 43 43 42 41 40 40
Wind_Direction
226 228 231 234 237 240 240 238 236 234 231 231 228 229 228 227 234 248 268 286 307 323 336 348 354 3 8 13 16 18 19 21 20 18 17 15 12 10 9 8 6 4 2
225 228 231 234 236 238 238 237 235 233 230 229 229 228 227 227 233 244 259 270 286 305 324 341 349 358 5 11 16 18 21 21 19 16 14 12 9 7 6 5 3 1 358
226 228 231 234 235 237 238 237 235 233 231 229 229 227 226 226 232 244 254 258 269 288 314 331 345 358 4 10 14 16 17 17 15 13 11 9 7 4 3 1 359 357 355
226 228 231 233 234 235 235 236 235 233 230 228 227 227 226 228 234 241 247 253 263 281 300 317 336 355 2 7 11 12 12 12 11 9 7 5 3 1 359 357 355 353 351
226 228 230 231 233 233 235 236 234 231 228 227 227 228 228 231 234 238 244 250 259 274 287 301 324 344 354 1 5 6 6 6 4 2 1 360 358 356 354 353 351 349 348
226 228 229 230 231 232 233 233 233 231 229 229 227 227 229 229 232 238 244 253 262 272 282 293 311 328 341 352 357 359 1 1 359 358 356 355 354 352 351 349 348 346 345
227 228 229 230 231 231 231 231 232 231 229 228 226 225 227 228 233 238 245 255 262 271 281 289 302 315 329 341 349 353 355 356 354 354 352 351 350 349 348 346 344 343 342
228 228 229 230 232 232 232 231 231 230 228 226 225 226 228 231 236 240 248 256 262 270 278 287 298 309 323 334 340 343 345 347 348 348 347 346 346 345 344 342 341 340 338
229 230 230 231 232 233 233 233 232 230 229 227 227 229 232 235 238 242 249 257 262 268 276 286 294 307 318 327 333 336 338 339 341 341 341 341 341 341 340 339 338 337 336
229 230 231 231 232 233 233 233 233 232 231 230 230 232 235 237 240 245 251 258 263 269 276 284 292 302 311 319 326 329 332 333 335 335 336 337 337 336 336 335 335 334 332
230 231 232 232 231 232 233 233 234 234 234 234 233 234 237 239 242 247 253 259 264 271 278 286 294 300 307 313 318 322 324 327 329 330 331 332 333 332 332 332 331 330 329
231 233 233 233 231 232 233 234 234 235 235 236 236 237 239 242 246 250 255 260 265 271 278 285 293 298 303 307 312 315 319 322 324 326 327 328 329 328 329 329 328 327 326
229 232 234 234 234 233 234 235 235 236 236 237 238 239 241 244 248 252 257 262 267 272 278 284 289 294 298 303 306 310 314 316 319 321 323 324 325 325 325 325 326 325 324
227 231 235 236 236 236 236 236 237 237 238 238 239 241 243 245 248 253 257 262 268 273 278 283 287 291 295 299 302 306 309 312 315 317 319 320 321 321 322 322 323 322 322
227 230 232 236 238 239 239 239 238 239 239 240 241 243 245 247 249 253 257 262 267 271 276 280 284 289 293 297 300 303 306 309 311 313 315 317 317 318 319 319 320 320 319
226 229 232 235 238 241 243 242 242 242 242 242 244 245 247 249 251 254 258 262 266 270 274 278 283 287 291 295 298 301 304 306 308 310 311 313 315 315 316 316 317 317 317
225 228 231 234 238 241 244 245 246 246 246 246 247 248 250 252 254 256 259 263 266 270 274 278 282 286 290 293 296 299 301 303 305 306 308 310 312 313 313 314 315 315 314
227 229 232 234 238 241 244 246 248 249 249 249 250 251 253 254 256 259 261 264 267 271 275 278 282 285 288 290 294 297 298 300 302 304 306 307 309 310 310 311 312 312 312
229 231 233 235 237 241 244 246 248 250 251 252 253 253 255 256 258 261 263 266 269 272 275 278 281 283 286 288 291 294 296 298 300 302 303 305 306 307 307 308 308 309 309
230 232 234 235 237 240 243 246 248 250 252 254 255 255 256 258 259 262 265 267 270 272 275 277 280 283 285 287 290 292 295 297 298 299 300 302 303 304 305 306 306 307 307
231 233 236 237 239 241 243 246 248 251 253 254 255 256 257 259 261 263 265 268 270 272 275 277 279 282 284 287 289 291 293 295 296 297 298 300 301 303 304 305 305 306 305
232 233 235 237 240 242 244 246 248 250 252 254 256 256 258 260 263 265 267 268 270 273 275 277 279 281 284 286 288 290 290 292 294 295 297 298 299 301 302 303 304 304 304
233 235 236 238 240 242 244 246 248 250 253 255 256 258 259 260 263 265 266 269 271 273 275 277 279 281 283 286 288 290 290 291 291 293 294 296 297 299 300 301 302 302 302
235 236 238 240 241 242 244 246 248 250 252 254 257 258 259 261 263 264 265 268 271 273 275 276 278 281 283 285 287 288 289 291 292 292 293 294 296 297 298 299 299 299 300
236 237 239 240 242 243 244 246 247 249 252 253 256 257 260 262 264 266 267 268 270 272 275 277 279 281 283 285 286 287 289 290 291 292 293 294 295 295 297 298 297 298 299
237 238 239 241 242 244 245 246 248 250 252 254 256 258 261 263 264 266 267 269 270 272 274 277 279 280 282 283 285 286 287 288 289 290 291 293 293 295 296 296 295 296 297
Height
5878 5880 5882 5884 5885 5887 5889 5890 5891 5892 5893 5894 5894 5895 5896 5896 5897 5897 5897 5897 5897 5897 5897 5896 5896 5896 5895 5895 5894 5894 5893 5892 5892 5891 5890 5889 5888 5887 5886 5885 5883 5882 5880
5876 5878 5880 5882 5884 5886 5887 5888 5890 5891 5892 5893 5894 5895 5895 5896 5896 5896 5897 5897 5897 5897 5896 5896 5896 5895 5895 5895 5894 5894 5893 5892 5892 5891 5890 5889 5888 5887 5885 5884 5883 5881 5880
5874 5876 5878 5880 5882 5884 5886 5887 5888 5890 5891 5892 5893 5894 5894 5895 5895 5896 5896 5896 5896 5896 5896 5896 5895 5895 5895 5894 5894 5894 5893 5892 5891 5891 5890 5889 5888 5886 5885 5884 5882 5880 5879
5871 5874 5876 5878 5880 5882 5884 5886 5887 5888 5889 5890 5892 5893 5894 5894 5895 5895 5895 5895 5895 5895 5895 5895 5895 5895 5895 5894 5894 5893 5893 5892 5891 5890 5889 5888 5887 5886 5884 5883 5881 5879 5878
5869 5871 5874 5876 5879 5881 5882 5884 5886 5887 5888 5889 5890 5891 5892 5893 5894 5894 5894 5895 5895 5895 5895 5895 5894 5894 5894 5894 5893 5893 5892 5891 5891 5890 5889 5888 5886 5885 5883 5882 5880 5878 5877
5866 5869 5871 5874 5876 5879 5881 5882 5884 5885 5887 5888 5889 5890 5891 5892 5893 5893 5893 5894 5894 5894 5894 5894 5894 5894 5893 5893 5892 5892 5891 5891 5890 5889 5888 5886 5885 5884 5882 5881 5879 5877 5875
5863 5866 5869 5871 5874 5876 5879 5880 5882 5884 5885 5886 5888 5889 5890 5891 5891 5892 5892 5893 5893 5893 5893 5893 5893 5893 5892 5892 5891 5891 5890 5890 5889 5888 5887 5885 5884 5882 5881 5879 5877 5875 5874
5859 5863 5866 5869 5871 5874 5876 5878 5880 5882 5883 5885 5886 5887 5888 5889 5890 5891 5891 5891 5892 5892 5892 5892 5892 5892 5891 5891 5890 5890 5889 5888 5888 5886 5885 5884 5882 5881 5879 5877 5876 5874 5871
5856 5859 5863 5866 5869 5871 5873 5876 5878 5880 5881 5883 5884 5885 5887 5888 5889 5889 5890 5890 5890 5890 5891 5891 5891 5890 5890 5889 5889 5888 5888 5887 5886 5885 5884 5882 5881 5879 5877 5875 5873 5871 5869
5852 5855 5859 5862 5865 5868 5871 5873 5875 5877 5879 5880 5882 5883 5885 5886 5887 5888 5888 5888 5889 5889 5889 5889 5889 5889 5888 5888 5887 5887 5886 5885 5884 5883 5881 5880 5878 5877 5875 5873 5871 5869 5866
5848 5851 5855 5859 5862 5865 5867 5870 5872 5874 5876 5878 5879 5881 5882 5884 5885 5885 5886 5886 5887 5887 5887 5887 5887 5887 5887 5886 5885 5885 5884 5883 5882 5880 5879 5878 5876 5874 5872 5870 5868 5865 5863
5843 5847 5851 5855 5858 5861 5864 5867 5869 5871 5873 5875 5877 5878 5880 5881 5882 5883 5884 5884 5885 5885 5885 5885 5885 5885 5884 5884 5883 5882 5881 5880 5879 5878 5876 5875 5873 5871 5869 5866 5864 5862 5859
5838 5843 5847 5851 5854 5857 5860 5863 5866 5868 5870 5872 5874 5875 5877 5878 5879 5880 5881 5882 5882 5882 5882 5882 5882 5882 5882 5881 5880 5880 5879 5877 5876 5875 5873 5871 5869 5867 5865 5863 5860 5858 5855
5833 5838 5842 5846 5850 5853 5856 5859 5862 5864 5866 5869 5870 5872 5874 5875 5876 5877 5878 5879 5879 5879 5879 5880 5879 5879 5879 5878 5878 5877 5875 5874 5873 5871 5870 5868 5866 5863 5861 5859 5856 5854 5851
5828 5833 5837 5841 5845 5848 5852 5855 5857 5860 5862 5865 5867 5868 5870 5871 5873 5874 5875 5875 5876 5876 5876 5876 5876 5876 5875 5875 5874 5873 5872 5870 5869 5867 5866 5864 5861 5859 5857 5854 5852 5849 5846
5822 5827 5831 5836 5839 5843 5847 5850 5853 5856 5858 5860 5862 5864 5866 5867 5869 5870 5871 5871 5872 5872 5872 5872 5872 5872 5871 5871 5870 5869 5868 5866 5865 5863 5861 5859 5857 5854 5852 5850 5847 5844 5841
5816 5821 5826 5830 5834 5838 5842 5845 5848 5851 5853 5856 5857 5859 5861 5863 5864 5865 5866 5867 5867 5868 5868 5868 5868 5867 5867 5866 5865 5864 5863 5861 5860 5858 5856 5854 5852 5849 5847 5844 5842 5839 5836
5810 5815 5820 5824 5829 5833 5836 5840 5843 5845 5848 5850 5853 5854 5856 5858 5859 5860 5861 5862 5863 5863 5863 5863 5863 5863 5862 5861 5861 5859 5858 5856 5854 5853 5851 5849 5846 5844 5841 5839 5836 5833 5830
5804 5809 5814 5819 5823 5827 5830 5834 5837 5840 5842 5845 5847 5849 5850 5852 5853 5855 5856 5857 5857 5858 5858 5858 5858 5857 5857 5856 5855 5854 5853 5851 5849 5847 5845 5842 5840 5838 5835 5833 5830 5827 5824
5797 5803 5807 5812 5817 5821 5824 5827 5831 5833 5836 5838 5840 5842 5844 5846 5847 5848 5850 5850 5851 5852 5852 5852 5852 5851 5850 5850 5849 5848 5846 5845 5843 5841 5838 5836 5833 5831 5828 5826 5823 5820 5817
5790 5796 5801 5805 5810 5814 5817 5821 5824 5827 5830 5832 5834 5836 5837 5839 5840 5842 5843 5844 5844 5845 5845 5845 5845 5844 5844 5843 5842 5841 5840 5838 5836 5834 5831 5829 5826 5824 5821 5818 5816 5813 5810
5783 5788 5793 5798 5803 5807 5811 5814 5817 5820 5822 5825 5826 5828 5830 5832 5833 5835 5836 5836 5837 5838 5838 5837 5837 5837 5836 5835 5834 5833 5833 5832 5829 5827 5824 5822 5819 5816 5813 5811 5808 5805 5802
5775 5781 5786 5790 5795 5799 5803 5806 5809 5812 5815 5817 5819 5821 5822 5824 5825 5827 5828 5828 5829 5830 5830 5830 5829 5829 5828 5827 5826 5825 5824 5823 5822 5820 5817 5814 5811 5808 5805 5802 5800 5797 5794
5767 5773 5777 5782 5786 5791 5794 5798 5801 5804 5807 5809 5811 5813 5814 5815 5817 5818 5819 5820 5821 5821 5821 5821 5821 5820 5820 5819 5817 5816 5815 5813 5812 5811 5809 5806 5803 5800 5797 5794 5791 5788 5785
5759 5764 5769 5773 5778 5782 5786 5789 5793 5796 5798 5800 5802 5804 5805 5807 5808 5809 5810 5811 5812 5812 5812 5812 5811 5811 5810 5810 5809 5807 5806 5804 5802 5800 5799 5797 5795 5792 5789 5786 5783 5780 5777
5749 5754 5759 5764 5768 5772 5776 5780 5783 5786 5788 5791 5793 5795 5796 5798 5799 5800 5800 5801 5802 5802 5802 5802 5802 5801 5801 5800 5799 5798 5796 5795 5793 5791 5789 5787 5785 5783 5780 5777 5774 5771 5768